FW7501 Weather Reports


Display with metric or nautical units.
time (UTC)temp
F
wind
direction
speed
MPH
gust
MPH
rain 1hr
in
rain 24hr
in
rain mn
in
humidity
%
barometer
mb
20260503192008 51 27 4.0 11.0 0.00 0.66 0.00 84 1012.3
20260503191520 51 1 6.0 12.0 0.00 0.66 0.00 85 1012.3
20260503191010 51 15 5.0 12.0 0.00 0.66 0.00 85 1012.3
20260503190509 51 21 4.0 12.0 0.00 0.66 0.00 85 1012.3
20260503190026 51 18 3.0 10.0 0.00 0.66 0.00 85 1012.3
20260503185506 51 37 4.0 10.0 0.00 0.66 0.00 85 1012.3
20260503185013 51 295 3.0 10.0 0.00 0.66 0.00 85 1012.4
20260503184511 51 33 4.0 10.0 0.00 0.67 0.00 84 1012.5
20260503184002 51 28 3.0 8.0 0.00 0.67 0.00 85 1012.5
20260503183504 51 54 3.0 12.0 0.00 0.68 0.00 85 1012.6
20260503183004 51 360 3.0 12.0 0.00 0.68 0.00 85 1012.7
20260503182503 51 18 3.0 10.0 0.00 0.69 0.00 84 1012.7
20260503182004 51 54 3.0 10.0 0.00 0.69 0.00 85 1012.7
20260503181504 51 58 3.0 12.0 0.00 0.69 0.00 84 1012.7
20260503181005 51 15 4.0 12.0 0.00 0.69 0.00 84 1012.8
20260503180504 51 14 3.0 12.0 0.00 0.69 0.00 84 1012.9
20260503180005 51 84 4.0 12.0 0.00 0.69 0.00 84 1013.0
20260503175504 51 29 3.0 9.0 0.00 0.69 0.00 84 1012.9
20260503175003 51 57 3.0 9.0 0.00 0.69 0.00 84 1012.9
20260503174504 51 10 2.0 11.0 0.00 0.69 0.00 84 1012.9
20260503174003 51 351 5.0 12.0 0.00 0.69 0.00 84 1012.9
20260503173504 51 34 3.0 12.0 0.00 0.69 0.00 84 1013.0
20260503173005 52 29 4.0 9.0 0.00 0.69 0.00 85 1013.0
20260503172504 51 29 4.0 12.0 0.00 0.69 0.00 85 1013.1
20260503172004 51 28 2.0 14.0 0.00 0.69 0.00 84 1013.1
20260503171509 51 12 6.0 14.0 0.00 0.69 0.00 84 1013.0
20260503171003 51 33 5.0 12.0 0.00 0.69 0.00 84 1013.0
20260503170503 51 31 2.0 8.0 0.00 0.69 0.00 84 1013.0
20260503151003 52 54 4.0 14.0 0.00 0.69 0.00 83 1013.4
20260503131006 53 343 7.0 17.0 0.00 0.69 0.69 82 1013.9
20260503090510 53 9 0.0 5.0 0.00 0.69 0.69 79 1013.8
20260503081506 53 17 3.0 8.0 0.00 0.69 0.69 77 1012.5
20260503081005 53 360 1.0 5.0 0.00 0.69 0.69 77 1012.4
20260503080508 53 14 1.0 5.0 0.00 0.69 0.69 77 1012.4
20260503072505 56 9 5.0 9.0 0.00 0.69 0.69 73 1012.6
20260503072006 56 354 6.0 12.0 0.00 0.69 0.69 73 1012.5
20260503070508 57 350 8.0 15.0 0.00 0.69 0.69 72 1012.4
20260503054509 59 335 8.0 17.0 0.00 0.69 0.69 81 1011.8
20260503054006 60 344 9.0 18.0 0.00 0.69 0.69 82 1011.7
20260503053502 60 340 10.0 24.0 0.00 0.69 0.69 84 1011.8
20260503053013 59 351 9.0 24.0 0.00 0.69 0.69 85 1011.8
20260503052503 58 332 11.0 22.0 0.00 0.69 0.69 85 1011.7
20260503052006 59 324 10.0 20.0 0.00 0.69 0.69 86 1011.6
20260503051507 58 350 14.0 20.0 0.00 0.69 0.69 86 1011.5
20260503051004 58 308 10.0 19.0 0.00 0.69 0.69 87 1011.5
20260503045008 57 349 11.0 18.0 0.00 0.69 0.69 86 1011.7
20260503044526 57 328 11.0 18.0 0.00 0.69 0.69 85 1011.7
20260503044002 57 319 12.0 21.0 0.01 0.69 0.69 85 1011.8
20260503043510 58 332 12.0 21.0 0.01 0.69 0.69 85 1011.7
20260503043023 58 321 12.0 22.0 0.01 0.69 0.69 85 1011.6
20260503042503 58 308 14.0 24.0 0.02 0.69 0.69 85 1011.5
20260503042008 58 322 13.0 24.0 0.03 0.69 0.69 85 1011.4
20260503041506 60 310 13.0 21.0 0.03 0.69 0.69 87 1011.3
20260503041003 60 324 11.0 21.0 0.03 0.69 0.69 87 1011.2
20260503040505 60 342 12.0 21.0 0.04 0.69 0.69 87 1011.1
20260503040003 60 354 11.0 26.0 0.03 0.68 0.68 87 1011.2
20260503035505 60 356 15.0 26.0 0.07 0.68 0.68 86 1011.2
20260503035004 60 343 16.0 26.0 0.07 0.68 0.68 86 1011.0
20260503034008 60 9 14.0 28.0 0.06 0.67 0.67 86 1011.1
20260503033509 61 347 9.0 25.0 0.06 0.67 0.67 86 1011.0
20260503032004 61 6 13.0 25.0 0.04 0.66 0.66 85 1011.0
20260503031007 61 358 9.0 32.0 0.03 0.65 0.65 85 1011.2
20260503030509 61 33 13.0 32.0 0.03 0.64 0.64 84 1011.3
20260503030008 61 2 11.0 32.0 0.03 0.64 0.64 84 1011.2
20260503025504 61 30 10.0 32.0 0.00 0.61 0.61 84 1011.4
20260503025004 61 20 8.0 23.0 0.00 0.61 0.61 84 1011.2
20260503024511 61 348 11.0 23.0 0.00 0.61 0.61 84 1011.3
20260503024009 61 320 7.0 21.0 0.00 0.61 0.61 84 1011.1
20260503023504 61 27 10.0 21.0 0.00 0.61 0.61 83 1011.4
20260503023016 61 28 7.0 20.0 0.01 0.61 0.61 83 1011.2
20260503022510 61 330 9.0 27.0 0.03 0.61 0.61 83 1011.2
20260503022013 62 55 9.0 27.0 0.06 0.61 0.61 84 1011.2
20260503021508 61 2 10.0 24.0 0.07 0.61 0.61 85 1011.2
20260503021010 60 17 12.0 24.0 0.09 0.61 0.61 84 1011.2
20260503020511 60 16 11.0 27.0 0.11 0.60 0.60 84 1011.4
20260503020024 60 8 13.0 27.0 0.13 0.60 0.60 84 1011.1
20260503015007 60 40 11.0 28.0 0.18 0.60 0.60 85 1011.2
20260503014003 60 8 11.0 21.0 0.29 0.60 0.60 85 1011.5
20260503013503 60 33 8.0 21.0 0.31 0.60 0.60 85 1011.5
20260503013017 60 81 6.0 23.0 0.34 0.59 0.59 85 1011.5
20260503012507 60 24 10.0 24.0 0.34 0.58 0.58 85 1012.0
20260503012009 60 29 11.0 28.0 0.33 0.55 0.55 85 1012.3
20260503011515 60 40 9.0 30.0 0.32 0.53 0.53 85 1012.0
20260503011007 60 16 12.0 30.0 0.31 0.51 0.51 85 1012.4
20260503010510 60 7 6.0 23.0 0.29 0.49 0.49 85 1012.7
20260503005011 60 33 6.0 21.0 0.30 0.41 0.41 85 1012.9
20260503004516 60 14 11.0 21.0 0.29 0.38 0.38 85 1012.9
20260503003506 60 6 10.0 27.0 0.21 0.29 0.29 85 1013.5
20260503003013 60 360 10.0 21.0 0.17 0.25 0.25 85 1013.3
20260503002508 60 354 8.0 17.0 0.15 0.23 0.23 84 1012.5
20260503002007 60 343 6.0 17.0 0.14 0.22 0.22 84 1012.4
20260503001514 60 180 4.0 17.0 0.13 0.21 0.21 84 1012.7
20260503001007 60 30 9.0 25.0 0.12 0.20 0.20 84 1013.2
20260503000512 60 34 10.0 25.0 0.11 0.19 0.19 83 1013.6
20260502235509 61 303 11.0 19.0 0.06 0.14 0.14 82 1013.8
20260502235007 61 355 10.0 19.0 0.03 0.11 0.11 81 1013.4
20260502234523 62 339 6.0 12.0 0.01 0.09 0.09 80 1013.0
20260502232507 62 4 8.0 18.0 0.00 0.07 0.07 79 1013.2
20260502232013 62 43 9.0 18.0 0.00 0.07 0.07 78 1013.3
20260502231522 62 35 6.0 18.0 0.00 0.07 0.07 78 1013.2
20260502231009 62 2 5.0 18.0 0.00 0.07 0.07 78 1013.1
20260502230017 62 343 7.0 17.0 0.00 0.07 0.07 78 1012.8
20260502225511 62 37 5.0 19.0 0.00 0.07 0.07 78 1012.8
20260502225013 62 40 5.0 19.0 0.00 0.07 0.07 79 1012.7
20260502224517 62 20 3.0 14.0 0.00 0.07 0.07 79 1012.6
20260502224012 62 171 4.0 13.0 0.00 0.07 0.07 79 1012.5
20260502223510 62 58 3.0 14.0 0.00 0.07 0.07 80 1012.3
20260502223029 61 11 8.0 14.0 0.00 0.07 0.07 80 1012.1
20260502222509 61 74 4.0 15.0 0.00 0.07 0.07 80 1012.3
20260502222010 61 29 5.0 15.0 0.00 0.07 0.07 80 1012.3
20260502221526 61 37 2.0 15.0 0.00 0.07 0.07 81 1012.3
20260502221011 61 70 5.0 16.0 0.00 0.07 0.07 81 1012.3
20260502220509 60 55 4.0 16.0 0.00 0.07 0.07 81 1012.6
20260502220023 60 65 4.0 12.0 0.00 0.07 0.07 81 1012.4
20260502215507 60 101 1.0 14.0 0.00 0.07 0.07 82 1012.7
20260502215013 60 50 7.0 19.0 0.00 0.07 0.07 82 1012.9
20260502214518 60 36 4.0 19.0 0.00 0.07 0.07 82 1012.8
20260502213507 59 20 5.0 14.0 0.00 0.07 0.07 83 1013.0
20260502211506 59 79 3.0 14.0 0.02 0.07 0.07 83 1012.7
20260502210010 59 10 3.0 22.0 0.03 0.07 0.07 83 1012.9
20260502205003 59 95 8.0 16.0 0.03 0.07 0.07 84 1013.0
20260502204516 59 16 2.0 20.0 0.03 0.07 0.07 83 1013.4
20260502204006 59 2 8.0 21.0 0.03 0.07 0.07 83 1013.5
20260502202504 59 10 8.0 15.0 0.03 0.06 0.06 83 1014.1
20260502201512 59 8 7.0 18.0 0.03 0.05 0.05 83 1014.0
20260502201005 59 21 10.0 27.0 0.03 0.05 0.05 82 1014.0
20260502200009 59 30 10.0 23.0 0.02 0.04 0.04 82 1013.8
20260502194507 59 12 9.0 19.0 0.02 0.03 0.03 81 1013.8
20260502193020 59 104 6.0 21.0 0.01 0.02 0.02 80 1013.9